EHI
0 0 0 0 0 0 0 0 0 0 0 0 0 0 0 0 0 0 0 0 0 0 0 0 0 0 0 0 0 0 0 0 0 0 0 0 0 0 0 0 0 0 0 0
0 0 0 0 0 0 0 0 0 0 0 0 0 0 0 0 0 0 0 0 0 0 0 0 0 0 0 0 0 0 0 0 0 0 0 0 0 0 0 0 0 0 0 0
0 0 0 0 0 0 0 0 0 0 0 0 0 0 0 0 0 0 0 0 0 0 0 0 0 0 0 0 0 0 0 0 0 0 0 0 0 0 0 0 0 0 0 0
0 0 0 0 0 0 0 0 0 0 0 0 0 0 0 0 0 0 0 0 0 0 0 0 0 0 0 0 0 0 0 0 0 0 0 0 0 0 0 0 0 0 0 0
0 0 0 0 0 0 0 0 0 0 0 0 0 0 0 0 0 0 0 0 0 0 0 0 0 0 0 0 0 0 0 0 0 0 0 0 0 0 0 0 0 0 0 0
0 0 0 0 0 0 0 0 0 0 0 0 0 0 0 0 0 0 0 0 0 0 0 0 0 0 0 0 0 0 0 0 0 0 0 0 0 0 0 0 0 0 0 0
0 0 0 0 0 0 0 0 0 0 0 0 0 0 0 0 0 0 0 0 0 0 0 0 0 0 0 0 0 0 0 0 0 0 0 0 0 0 0 0 0 0 0 0
0 0 0 0 0 0 0 0 0 0 0 0 0 0 0 0 0 0 0 0 0 0 0 0 0 0 0 0 0 0 0 0 0 0 0 0 0 0 0 0 0 0 0 0
0 0 0 0 0 0 0 0 0 0 0 0 0 0 0 0 0 0 0 0 0 0 0 0 0 0 0 0 0 0 0 0 0 0 0 0 0 0 0 0 0 0 0 0
0 0 0 0 0 0 0 0 0 0 0 0 0 0 0 0 0 0 0 0 0 0 0 0 0 0 0 0 0 0 0 0 0 0 0 0 0 0 0 0 0 0 0 0
0 0 0 0 0 0 0 0 0 0 0 0 0 0 0 0 0 0 0 0 0 0 0 0 0 0 0 0 0 0 0 0 0 0 0 0 0 0 0 0 0 0 0 0
0 0 0 0 0 0 0 0 0 0 0 0 0 0 0 0 0 0 0 0 0 0 0 0 0 0 0 0 0 0 0 0 0 0 0 0 0 0 0 0 0 0 0 0
0 0 0 0 0 0 0 0 0 0 0 0 0 0 0 0 0 0 0 0 0 0 0 0 0 0 0 0 0 0 0 0 0 0 0 0 0 0 0 0 0 0 0 0
0 0 0 0 0 0 0 0 0 0 0 0 0 0 0 0 0 0 0 0 0 0 0 0 0 0 0 0 0 0 0 0 0 0 0 0 0 0 0 0 0 0 0 0
0 0 0 0 0 0 0 0 0 0 0 0 0 0 0 0 0 0 0 0 0 0 0 0 0 0 0 0 0 0 0 0 0 0 0 0 0 0 0 0 0 0 0 0
0 0 0 0 0 0 0 0 0 0 0 0 0 0 0 0 0 0 0 0 0 0 0 0 0 0 0 0 0 0 0 0 0 0 0 0 0 0 0 0 0 0 0 0
0 0 0 0 0 0 0 0 0 0 0 0 0 0 0 0 0 0 0 0 0 0 0 0 0 0 0 0 0 0 0 0 0 0 0 0 0 0 0 0 0 0 0 0
0 0 0 0 0 0 0 0 0 0 0 0 0 0 0 0 0 0 0 0 0 0 0 0 0 0 0 0 0 0 0 0 0 0 0 0 0 0 0 0 0 0 0 0
0 0 0 0 0 0 0 0 0 0 0 0 0 0 0 0 0 0 0 0 0 0 0 0 0 0 0 0 0 0 0 0 0 0 0 0 0 0 0 0 0 0 0 0
0 0 0 0 0 0 0 0 0 0 0 0 0 0 0 0 0 0 0 0 0 0 0 0 0 0 0 0 0 0 0 0 0 0 0 0 0 0 0 0 0 0 0 0
0 0 0 0 0 0 0 0 0 0 0 0 0 0 0 0 0 0 0 0 0 0 0 0 0 0 0 0 0 0 0 0 0 0 0 0 0 0 0 0 0 0 0 0
0 0 0 0 0 0 0 0 0 0 0 0 0 0 0 0 0 0 0 0 0 0 0 0 0 0 0 0 0 0 0 0 0 0 0 0 0 0 0 0 0 0 0 0
0 0 0 0 0 0 0 0 0 0 0 0 0 0 0 0 0 0 0 0 0 0 0 0 0 0 0 0 0 0 0 0 0 0 0 0 0 0 0 0 0 0 0 0
0 0 0 0 0 0 0 0 0 0 0 0 0 0 0 0 0 0 0 0 0 0 0 0 0 0 0 0 0 0 0 0 0 0 0 0 0 0 0 0 0 0 0 0
0 0 0 0 0 0 0 0 0 0 0 0 0 0 0 0 0 0 0 0 0 0 0 0 0 0 0 0 0 0 0 0 0 0 0 0 0 0 0 0 0 0 0 0
0 0 0 0 0 0 0 0 0 0 0 0 0 0 0 0 0 0 0 0 0 0 0 0 0 0 0 0 0 0 0 0 0 0 0 0 0 0 0 0 0 0 0 0
Wind_Speed
10 11 15 18 21 20 18 18 19 18 16 18 21 21 18 16 14 14 14 15 15 14 14 14 14 15 14 15 17 18 17 15 13 11 11 10 10 8 7 7 9 9 9 10
11 17 20 19 19 21 22 22 20 15 15 16 16 19 17 17 17 14 13 13 14 14 14 15 14 15 15 17 18 19 19 17 16 13 11 9 8 7 6 6 8 10 10 10
18 15 16 18 19 20 21 21 19 16 12 13 12 16 17 14 17 16 15 13 12 14 14 15 16 15 15 17 18 18 20 18 17 14 10 9 7 6 7 9 9 10 11 11
14 17 17 17 18 18 18 18 18 17 14 8 10 9 14 15 16 18 17 15 14 13 13 13 15 15 16 16 16 18 19 19 18 16 14 16 14 12 12 10 8 9 11 11
11 10 14 18 18 16 15 12 15 15 14 12 11 9 8 14 18 18 17 16 15 13 13 13 14 15 15 15 15 16 18 19 18 18 17 16 12 10 7 8 10 11 10 11
17 14 11 12 13 14 13 11 11 12 10 16 17 13 8 12 17 17 17 16 15 14 12 12 12 13 13 14 14 15 17 17 19 19 18 18 16 13 12 12 13 11 9 10
12 14 12 10 10 10 11 8 7 9 10 10 12 14 10 9 12 13 14 14 13 13 11 10 10 12 14 15 15 16 17 17 18 19 19 19 17 16 15 14 13 12 10 10
6 8 7 8 11 8 11 11 8 6 6 6 11 13 9 11 10 9 9 11 12 12 11 11 11 12 13 15 17 17 17 16 18 19 19 18 17 13 11 12 11 13 11 11
5 7 6 7 9 10 8 11 8 6 6 5 8 9 8 8 9 9 8 7 9 11 11 10 11 11 12 14 16 17 17 16 17 18 18 17 17 14 13 12 11 10 9 10
5 8 8 7 6 9 7 4 5 7 6 7 7 10 6 10 10 10 8 6 5 6 7 8 8 10 11 12 13 14 16 16 15 17 17 15 16 15 13 11 12 12 12 11
5 6 7 5 4 5 6 7 5 4 5 4 4 4 6 6 8 8 7 7 6 5 5 6 5 6 8 9 10 12 13 13 14 15 15 15 14 14 13 12 12 12 11 12
4 4 6 7 4 2 3 5 6 5 5 5 4 5 2 1 2 5 6 5 5 4 4 4 4 5 5 7 8 10 11 12 12 14 14 15 14 14 14 13 13 12 12 12
4 3 6 4 1 0 2 4 5 6 5 5 6 6 5 6 3 2 1 2 3 4 3 3 3 4 4 5 6 7 8 9 9 10 13 13 14 14 14 13 12 12 12 12
6 4 5 6 6 5 6 6 6 6 6 6 9 8 8 9 7 5 3 2 0 3 3 3 3 3 4 4 5 5 5 6 7 8 10 12 13 14 13 12 12 12 12 12
3 5 7 12 12 10 10 9 7 9 9 8 7 8 7 9 7 4 4 3 3 2 2 2 2 2 2 3 3 3 4 5 6 7 9 10 10 10 11 11 11 11 11 11
2 5 8 11 10 9 10 10 9 10 9 10 11 10 5 6 6 6 5 4 4 4 3 3 2 2 2 2 3 3 3 4 5 7 7 7 8 9 9 10 10 10 10 10
3 3 4 6 9 9 7 7 9 8 7 7 8 6 6 5 6 5 6 6 5 4 3 3 2 1 1 2 3 4 4 4 5 6 7 7 8 8 8 9 10 11 10 10
5 4 4 6 6 6 2 2 3 5 3 3 4 4 4 6 5 3 5 6 5 5 4 3 2 1 0 1 2 2 3 4 5 6 6 7 8 8 8 9 10 10 9 9
9 6 4 4 5 7 3 3 4 4 2 3 4 5 6 7 4 3 6 7 5 4 3 3 2 1 1 1 2 3 4 4 5 5 6 7 8 8 9 10 9 8 8 8
6 6 5 5 5 4 3 7 6 3 1 5 5 5 6 7 2 4 7 8 7 5 4 3 2 1 1 1 2 3 3 5 5 5 5 6 7 8 8 8 8 7 7 7
3 4 7 7 6 4 4 7 5 0 2 5 5 6 5 4 4 6 7 7 6 6 5 4 3 1 0 1 2 2 3 4 4 4 5 5 6 7 7 7 6 8 7 8
4 3 4 4 5 4 5 4 2 2 4 5 5 6 6 6 7 7 7 6 6 6 5 4 3 2 1 1 1 1 2 3 4 5 5 5 6 6 6 7 7 8 9 9
4 4 3 4 4 3 3 2 3 3 4 5 5 6 7 8 8 8 7 7 6 6 5 4 3 3 2 0 1 1 1 3 5 6 6 6 6 6 6 7 8 8 7 7
4 3 4 5 5 5 5 4 5 6 6 6 6 6 7 8 8 8 7 6 6 6 5 4 3 3 3 2 1 1 2 4 5 6 6 6 6 6 5 5 6 6 7 7
6 4 5 7 7 7 6 5 7 8 8 8 7 6 7 8 9 8 8 7 6 5 5 4 3 3 3 2 0 1 3 4 5 5 6 6 6 6 6 4 3 4 4 6
5 6 6 7 5 6 7 7 8 9 8 9 9 9 7 7 8 8 8 7 6 6 5 4 4 4 3 2 1 2 3 4 6 6 6 5 5 5 6 6 6 8 6 8
Wind_Direction
226 218 223 223 225 237 246 244 240 241 234 228 230 233 231 230 233 227 219 215 217 215 203 197 192 184 177 172 171 171 171 172 168 171 174 175 177 173 172 172 174 172 170 169
244 235 235 237 236 238 243 249 251 253 243 234 236 238 233 228 230 228 225 218 212 210 205 196 192 184 180 176 174 173 174 176 176 178 178 175 168 170 170 171 178 179 177 175
241 246 243 241 240 241 240 241 245 251 265 259 250 244 234 229 227 226 225 223 218 210 206 195 191 187 181 180 177 176 176 178 179 174 168 164 163 167 178 185 187 185 182 180
252 251 251 244 239 237 244 241 247 251 252 249 230 246 229 226 226 223 219 216 219 217 210 201 190 186 183 181 177 176 176 178 178 173 176 177 181 186 190 184 183 183 185 184
257 260 252 246 240 237 243 248 245 248 251 254 236 246 238 217 223 219 215 211 212 215 211 204 191 185 182 178 175 176 175 178 177 178 181 183 187 189 176 175 180 186 190 190
259 263 265 259 253 240 243 244 252 249 242 241 228 228 243 217 219 216 212 210 209 210 212 205 191 181 181 176 174 174 175 179 179 181 184 188 189 183 178 181 186 188 189 192
268 250 239 247 259 240 225 215 215 214 218 232 212 220 236 225 223 215 207 204 202 200 203 202 190 183 180 176 175 176 178 181 181 183 187 191 193 189 188 186 186 185 186 192
281 268 237 228 231 230 217 211 218 216 210 223 207 220 226 226 236 227 208 198 193 194 199 200 193 184 179 176 177 179 183 184 184 186 191 193 193 193 194 189 187 188 191 192
298 287 293 265 242 223 220 215 231 270 279 254 214 214 219 211 229 234 227 203 193 191 193 194 190 183 178 177 180 182 185 186 188 188 190 193 194 194 195 191 186 188 188 185
290 287 283 277 260 218 221 207 207 221 228 239 232 218 211 197 211 218 217 208 199 191 189 185 184 183 180 179 179 180 185 189 187 188 191 194 195 196 193 188 190 188 187 182
286 281 288 280 241 222 202 207 215 225 239 245 238 231 206 200 198 199 202 196 193 196 192 181 177 175 171 169 174 180 183 187 188 189 189 190 193 194 192 192 192 189 184 181
300 288 281 272 252 224 211 212 210 216 229 233 264 271 318 291 192 189 194 189 183 182 179 166 164 157 154 166 173 178 183 186 188 187 186 189 189 190 193 195 193 188 185 184
313 297 302 288 191 293 237 221 232 240 252 244 235 256 323 341 8 47 124 174 167 162 148 134 133 149 156 159 171 178 182 184 182 182 184 185 187 189 193 193 190 187 184 183
315 260 257 282 300 288 274 257 242 233 227 243 243 270 315 336 345 356 12 7 126 143 134 129 138 147 155 159 164 170 179 179 180 180 181 185 188 188 189 188 185 184 182 182
309 272 276 282 283 276 262 261 245 232 232 232 256 278 304 321 330 350 1 11 26 46 80 92 112 120 130 144 154 162 172 176 177 180 184 185 182 180 179 180 179 178 178 178
276 275 289 285 283 280 266 255 247 240 242 251 264 273 306 313 339 2 12 28 24 23 34 48 69 97 133 156 162 162 174 180 177 180 182 174 171 173 174 174 172 170 172 172
253 264 289 282 294 291 261 245 231 227 233 247 255 280 337 344 353 358 10 21 20 16 12 13 12 94 160 174 173 175 177 173 174 174 170 166 166 168 168 164 166 170 172 170
232 251 259 278 289 254 238 336 270 225 229 276 276 309 329 315 312 351 13 6 358 355 354 349 344 334 360 132 154 158 155 159 162 160 161 162 162 163 160 160 166 169 168 171
215 223 248 267 275 275 299 333 300 259 222 331 309 316 327 318 307 343 355 356 343 339 336 324 321 324 83 126 135 140 148 151 152 156 162 164 161 159 160 164 165 163 163 166
208 211 229 252 265 270 348 336 317 261 208 354 335 332 341 346 324 310 340 340 340 342 341 338 340 15 82 101 129 134 148 151 158 163 161 157 156 159 161 161 159 154 154 155
233 228 229 242 252 270 340 336 348 78 309 341 353 344 344 337 304 309 324 328 332 332 334 341 346 352 112 100 113 138 150 159 155 148 146 147 149 152 152 147 145 145 144 144
239 242 234 236 245 261 357 2 11 298 312 331 341 338 333 320 314 319 322 326 335 332 329 337 344 341 351 109 117 127 153 142 136 139 139 139 139 138 139 139 141 142 143 143
239 229 234 228 248 300 325 317 310 312 316 323 325 325 324 321 319 319 320 325 329 326 324 329 336 333 334 45 131 138 130 126 127 132 133 131 131 134 140 143 144 143 145 147
266 265 267 270 268 297 306 317 318 317 315 315 319 320 319 314 312 313 312 316 319 320 323 326 327 324 323 329 26 134 136 131 130 134 134 133 135 134 132 135 143 148 152 152
274 279 271 269 281 295 284 305 312 312 313 314 314 312 307 304 303 304 306 304 304 305 306 309 303 293 293 299 84 133 144 138 137 138 137 135 133 131 125 111 110 137 149 161
252 254 254 262 274 276 287 304 309 308 307 309 311 307 301 294 293 293 291 292 294 295 293 292 290 288 291 284 201 166 157 151 148 146 143 140 135 130 126 117 88 66 96 118